Time,TemperatureF,DewpointF,PressureIn,WindDirection,WindDirectionDegrees,WindSpeedMPH,WindSpeedGustMPH,Humidity,HourlyPrecipIn,Conditions,Clouds,dailyrainin,SolarRadiationWatts/m^2,SoftwareType,DateUTC
2014-02-17 00:01:00,29.5,27.9,30.04,NNW,334,0.0,0.0,93,0.00,,,0.00,0,TxWx,2014-02-17 05:01:00,
2014-02-17 00:06:00,29.5,28.0,30.05,NNW,334,0.0,0.0,94,0.00,,,0.00,0,TxWx,2014-02-17 05:06:00,
2014-02-17 00:11:00,29.4,27.9,30.05,NNW,334,0.0,0.0,94,0.00,,,0.00,0,TxWx,2014-02-17 05:11:00,
2014-02-17 00:16:00,29.5,28.3,30.05,North,3,0.0,0.0,95,0.00,,,0.00,0,TxWx,2014-02-17 05:16:00,
2014-02-17 00:21:00,29.4,28.1,30.05,NNW,344,0.0,0.0,94,0.00,,,0.00,0,TxWx,2014-02-17 05:21:00,
2014-02-17 00:26:00,29.2,27.9,30.05,North,351,0.0,0.0,94,0.00,,,0.00,0,TxWx,2014-02-17 05:26:00,
2014-02-17 00:31:00,29.0,27.7,30.05,North,352,0.0,0.0,94,0.00,,,0.00,0,TxWx,2014-02-17 05:31:00,
2014-02-17 00:36:00,28.8,27.6,30.05,North,3,0.0,0.0,95,0.00,,,0.00,0,TxWx,2014-02-17 05:36:00,
2014-02-17 00:41:00,28.7,27.7,30.05,NNE,21,0.0,0.0,95,0.00,,,0.00,0,TxWx,2014-02-17 05:41:00,
2014-02-17 00:46:00,28.8,27.8,30.05,NNE,26,0.0,0.0,96,0.00,,,0.00,0,TxWx,2014-02-17 05:46:00,
2014-02-17 00:51:00,28.5,27.6,30.05,NNW,327,0.0,0.0,96,0.00,,,0.00,0,TxWx,2014-02-17 05:51:00,
2014-02-17 00:56:00,28.4,27.4,30.05,NNW,327,0.0,0.0,95,0.00,,,0.00,0,TxWx,2014-02-17 05:56:00,
2014-02-17 01:01:00,28.1,27.2,30.05,NNW,327,0.0,0.0,96,0.00,,,0.00,0,TxWx,2014-02-17 06:01:00,
2014-02-17 01:06:00,28.1,27.3,30.05,NNE,13,0.0,0.0,96,0.00,,,0.00,0,TxWx,2014-02-17 06:06:00,
2014-02-17 01:11:00,28.0,27.3,30.05,NNE,14,0.0,0.0,97,0.00,,,0.00,0,TxWx,2014-02-17 06:11:00,
2014-02-17 01:16:00,28.1,27.4,30.05,NNE,14,0.0,0.0,97,0.00,,,0.00,0,TxWx,2014-02-17 06:16:00,
2014-02-17 01:21:00,27.9,27.2,30.05,NNW,337,0.0,0.0,97,0.00,,,0.00,0,TxWx,2014-02-17 06:21:00,
2014-02-17 01:26:00,27.7,27.1,30.06,NNW,337,0.0,0.0,97,0.00,,,0.00,0,TxWx,2014-02-17 06:26:00,
2014-02-17 01:31:00,27.5,26.9,30.06,NNW,336,0.0,0.0,97,0.00,,,0.00,0,TxWx,2014-02-17 06:31:00,
2014-02-17 01:36:00,27.4,26.8,30.06,NNW,337,0.0,0.0,97,0.00,,,0.00,0,TxWx,2014-02-17 06:36:00,
2014-02-17 01:41:00,27.4,26.9,30.06,North,358,0.0,0.0,97,0.00,,,0.00,0,TxWx,2014-02-17 06:41:00,
2014-02-17 01:46:00,27.4,27.0,30.06,North,358,0.0,0.0,98,0.00,,,0.00,0,TxWx,2014-02-17 06:46:00,
2014-02-17 01:51:00,27.7,27.4,30.06,NNE,14,0.0,0.0,98,0.00,,,0.00,0,TxWx,2014-02-17 06:51:00,
2014-02-17 01:56:00,27.7,27.3,30.06,NE,51,0.0,0.0,98,0.00,,,0.00,0,TxWx,2014-02-17 06:56:00,
2014-02-17 02:01:00,27.7,27.3,30.06,NE,56,0.0,0.0,98,0.00,,,0.00,0,TxWx,2014-02-17 07:01:00,
2014-02-17 02:06:00,27.5,27.2,30.07,NNW,331,0.0,0.0,98,0.00,,,0.00,0,TxWx,2014-02-17 07:06:00,
2014-02-17 02:11:00,27.4,27.0,30.06,NNW,331,0.0,0.0,98,0.00,,,0.00,0,TxWx,2014-02-17 07:11:00,
2014-02-17 02:16:00,27.2,26.9,30.06,NNE,14,0.0,0.0,98,0.00,,,0.00,0,TxWx,2014-02-17 07:16:00,
2014-02-17 02:21:00,27.3,27.0,30.06,NNE,17,0.0,0.0,98,0.00,,,0.00,0,TxWx,2014-02-17 07:21:00,
2014-02-17 02:26:00,27.3,27.2,30.05,NNE,18,0.0,0.0,99,0.00,,,0.00,0,TxWx,2014-02-17 07:26:00,
2014-02-17 02:31:00,27.4,27.2,30.05,NNE,20,0.0,0.0,99,0.00,,,0.00,0,TxWx,2014-02-17 07:31:00,
2014-02-17 02:36:00,27.5,27.3,30.06,North,4,1.1,1.1,99,0.00,,,0.00,0,TxWx,2014-02-17 07:36:00,
2014-02-17 02:41:00,27.8,27.7,30.06,North,7,1.1,1.1,99,0.00,,,0.00,0,TxWx,2014-02-17 07:41:00,
2014-02-17 02:46:00,27.9,27.7,30.06,NE,53,0.0,0.0,99,0.00,,,0.00,0,TxWx,2014-02-17 07:46:00,
2014-02-17 02:51:00,27.6,27.3,30.06,NW,306,0.0,0.0,98,0.00,,,0.00,0,TxWx,2014-02-17 07:51:00,
2014-02-17 02:56:00,27.4,27.1,30.06,NW,306,0.0,0.0,98,0.00,,,0.00,0,TxWx,2014-02-17 07:56:00,
2014-02-17 03:01:00,27.2,26.8,30.06,NW,306,0.0,0.0,98,0.00,,,0.00,0,TxWx,2014-02-17 08:01:00,
2014-02-17 03:06:00,27.0,26.6,30.06,NW,306,0.0,0.0,98,0.00,,,0.00,0,TxWx,2014-02-17 08:06:00,
2014-02-17 03:11:00,26.8,26.5,30.07,NW,307,0.0,0.0,98,0.00,,,0.00,0,TxWx,2014-02-17 08:11:00,
2014-02-17 03:16:00,27.0,26.9,30.07,North,357,2.4,2.4,99,0.00,,,0.00,0,TxWx,2014-02-17 08:16:00,
2014-02-17 03:21:00,27.2,27.1,30.07,NNW,345,1.1,2.0,99,0.00,,,0.00,0,TxWx,2014-02-17 08:21:00,
2014-02-17 03:26:00,27.1,27.0,30.07,NNW,340,0.0,1.0,99,0.00,,,0.00,0,TxWx,2014-02-17 08:26:00,
2014-02-17 03:32:00,26.9,26.7,30.07,NNW,343,0.0,0.0,98,0.00,,,0.00,0,TxWx,2014-02-17 08:32:00,
2014-02-17 03:37:00,26.7,26.4,30.07,NNE,23,0.0,0.0,99,0.00,,,0.00,0,TxWx,2014-02-17 08:37:00,
2014-02-17 03:42:00,26.7,26.6,30.07,NNE,24,0.0,0.0,99,0.00,,,0.00,0,TxWx,2014-02-17 08:42:00,
2014-02-17 03:47:00,26.6,26.5,30.07,NNE,28,1.1,1.1,99,0.00,,,0.00,0,TxWx,2014-02-17 08:47:00,
2014-02-17 03:52:00,26.4,26.3,30.07,NNW,344,0.0,1.0,99,0.00,,,0.00,0,TxWx,2014-02-17 08:52:00,
2014-02-17 03:57:00,26.2,26.0,30.07,North,353,1.1,2.0,99,0.00,,,0.00,0,TxWx,2014-02-17 08:57:00,
2014-02-17 04:02:00,26.0,25.9,30.07,NNW,342,1.1,2.0,99,0.00,,,0.00,0,TxWx,2014-02-17 09:02:00,
2014-02-17 04:07:00,26.2,26.2,30.07,North,356,0.0,1.0,99,0.00,,,0.00,0,TxWx,2014-02-17 09:07:00,
2014-02-17 04:12:00,26.3,26.3,30.07,NNW,331,0.0,0.0,100,0.00,,,0.00,0,TxWx,2014-02-17 09:12:00,
2014-02-17 04:17:00,26.3,26.3,30.07,NNW,331,0.0,0.0,99,0.00,,,0.00,0,TxWx,2014-02-17 09:17:00,
2014-02-17 04:22:00,26.1,26.0,30.07,North,4,0.0,0.0,99,0.00,,,0.00,0,TxWx,2014-02-17 09:22:00,
2014-02-17 04:27:00,25.9,25.9,30.07,North,7,0.0,0.0,99,0.00,,,0.00,0,TxWx,2014-02-17 09:27:00,
2014-02-17 04:32:00,25.8,25.8,30.07,NE,48,0.0,0.0,100,0.00,,,0.00,0,TxWx,2014-02-17 09:32:00,
2014-02-17 04:37:00,25.9,25.9,30.07,NE,42,1.1,1.1,100,0.00,,,0.00,0,TxWx,2014-02-17 09:37:00,
2014-02-17 04:42:00,26.0,26.0,30.07,NE,51,0.0,1.0,100,0.00,,,0.00,0,TxWx,2014-02-17 09:42:00,
2014-02-17 04:47:00,26.0,26.0,30.07,North,357,0.0,0.0,100,0.00,,,0.00,0,TxWx,2014-02-17 09:47:00,
2014-02-17 04:52:00,26.1,26.1,30.07,NNE,31,0.0,0.0,100,0.00,,,0.00,0,TxWx,2014-02-17 09:52:00,
2014-02-17 04:57:00,26.4,26.4,30.08,North,10,1.1,1.1,100,0.00,,,0.00,0,TxWx,2014-02-17 09:57:00,
2014-02-17 05:02:00,26.5,26.5,30.08,NE,44,0.0,0.0,100,0.00,,,0.00,0,TxWx,2014-02-17 10:02:00,
2014-02-17 05:07:00,26.6,26.6,30.07,North,6,0.0,0.0,100,0.00,,,0.00,0,TxWx,2014-02-17 10:07:00,
2014-02-17 05:12:00,26.6,26.6,30.07,NNW,337,0.0,0.0,99,0.00,,,0.00,0,TxWx,2014-02-17 10:12:00,
2014-02-17 05:17:00,26.4,26.3,30.07,NW,323,0.0,0.0,99,0.00,,,0.00,0,TxWx,2014-02-17 10:17:00,
2014-02-17 05:22:00,26.4,26.3,30.08,NW,323,0.0,0.0,99,0.00,,,0.00,0,TxWx,2014-02-17 10:22:00,
2014-02-17 05:27:00,26.3,26.2,30.08,NW,323,0.0,0.0,99,0.00,,,0.00,0,TxWx,2014-02-17 10:27:00,
2014-02-17 05:32:00,26.3,26.2,30.08,NE,37,2.4,2.4,99,0.00,,,0.00,0,TxWx,2014-02-17 10:32:00,
2014-02-17 05:37:00,26.7,26.6,30.08,NE,34,0.0,1.0,99,0.00,,,0.00,0,TxWx,2014-02-17 10:37:00,
2014-02-17 05:42:00,26.7,26.5,30.08,NNW,339,0.0,0.0,99,0.00,,,0.00,0,TxWx,2014-02-17 10:42:00,
2014-02-17 05:47:00,26.7,26.5,30.08,NNW,339,0.0,0.0,99,0.00,,,0.00,0,TxWx,2014-02-17 10:47:00,
2014-02-17 05:52:00,26.8,26.6,30.08,NE,56,0.0,0.0,99,0.00,,,0.00,0,TxWx,2014-02-17 10:52:00,
2014-02-17 05:57:00,26.9,26.8,30.08,ENE,57,0.0,0.0,99,0.00,,,0.00,0,TxWx,2014-02-17 10:57:00,
2014-02-17 06:02:00,27.0,26.8,30.08,ENE,57,0.0,0.0,99,0.00,,,0.00,0,TxWx,2014-02-17 11:02:00,
2014-02-17 06:07:00,27.1,26.8,30.08,ENE,57,0.0,0.0,98,0.00,,,0.00,0,TxWx,2014-02-17 11:07:00,
2014-02-17 06:12:00,27.3,27.0,30.08,NNW,343,0.0,0.0,98,0.00,,,0.00,0,TxWx,2014-02-17 11:12:00,
2014-02-17 06:17:00,27.4,27.0,30.08,NNE,24,0.0,0.0,98,0.00,,,0.00,0,TxWx,2014-02-17 11:17:00,
2014-02-17 06:22:00,27.5,27.0,30.08,WNW,301,0.0,0.0,98,0.00,,,0.00,0,TxWx,2014-02-17 11:22:00,
2014-02-17 06:27:00,27.6,27.2,30.08,NNE,21,0.0,0.0,98,0.00,,,0.00,0,TxWx,2014-02-17 11:27:00,
2014-02-17 06:32:00,27.7,27.1,30.08,North,353,0.0,0.0,97,0.00,,,0.00,0,TxWx,2014-02-17 11:32:00,
2014-02-17 06:37:00,27.7,26.9,30.08,North,353,0.0,0.0,97,0.00,,,0.00,0,TxWx,2014-02-17 11:37:00,
2014-02-17 06:42:00,27.5,26.7,30.08,NNW,338,0.0,0.0,96,0.00,,,0.00,0,TxWx,2014-02-17 11:42:00,
2014-02-17 06:47:00,27.5,26.6,30.08,NNW,338,0.0,0.0,96,0.00,,,0.00,0,TxWx,2014-02-17 11:47:00,
2014-02-17 06:52:00,27.5,26.6,30.08,East,85,0.0,0.0,96,0.00,,,0.00,0,TxWx,2014-02-17 11:52:00,
2014-02-17 06:57:00,27.5,26.6,30.08,East,85,0.0,0.0,96,0.00,,,0.00,0,TxWx,2014-02-17 11:57:00,
2014-02-17 07:02:00,27.5,26.5,30.08,NW,311,0.0,0.0,96,0.00,,,0.00,0,TxWx,2014-02-17 12:02:00,
2014-02-17 07:07:00,27.5,26.5,30.09,NW,311,0.0,0.0,96,0.00,,,0.00,1,TxWx,2014-02-17 12:07:00,
2014-02-17 07:12:00,27.4,26.5,30.08,NW,310,0.0,0.0,96,0.00,,,0.00,3,TxWx,2014-02-17 12:12:00,
2014-02-17 07:17:00,27.6,26.7,30.09,NW,311,0.0,0.0,96,0.00,,,0.00,1,TxWx,2014-02-17 12:17:00,
2014-02-17 07:22:00,27.9,27.0,30.09,East,87,0.0,0.0,96,0.00,,,0.00,1,TxWx,2014-02-17 12:22:00,
2014-02-17 07:27:00,28.1,27.1,30.09,SW,234,2.4,2.4,95,0.00,,,0.00,3,TxWx,2014-02-17 12:27:00,
2014-02-17 07:32:00,28.1,27.0,30.09,SW,234,0.0,0.0,95,0.00,,,0.00,6,TxWx,2014-02-17 12:32:00,
2014-02-17 07:37:00,28.2,27.1,30.09,SW,234,0.0,0.0,95,0.00,,,0.00,7,TxWx,2014-02-17 12:37:00,
2014-02-17 07:42:00,28.3,27.2,30.09,West,272,0.0,0.0,95,0.00,,,0.00,9,TxWx,2014-02-17 12:42:00,
2014-02-17 07:47:00,28.5,27.3,30.09,West,272,0.0,0.0,95,0.00,,,0.00,13,TxWx,2014-02-17 12:47:00,
2014-02-17 07:52:00,28.6,27.4,30.09,West,272,0.0,0.0,95,0.00,,,0.00,18,TxWx,2014-02-17 12:52:00,
2014-02-17 07:57:00,28.7,27.6,30.09,West,272,0.0,0.0,95,0.00,,,0.00,27,TxWx,2014-02-17 12:57:00,
2014-02-17 08:02:00,28.9,27.7,30.09,West,272,0.0,0.0,95,0.00,,,0.00,40,TxWx,2014-02-17 13:02:00,
2014-02-17 08:07:00,29.1,27.9,30.09,West,272,0.0,0.0,95,0.00,,,0.00,42,TxWx,2014-02-17 13:07:00,
2014-02-17 08:12:00,29.4,28.2,30.09,West,272,0.0,0.0,95,0.00,,,0.00,51,TxWx,2014-02-17 13:12:00,
2014-02-17 08:17:00,29.7,28.4,30.09,West,272,0.0,0.0,94,0.00,,,0.00,60,TxWx,2014-02-17 13:17:00,
2014-02-17 08:23:00,30.3,28.9,30.09,West,272,0.0,0.0,94,0.00,,,0.00,78,TxWx,2014-02-17 13:23:00,
2014-02-17 08:28:00,30.7,29.3,30.09,West,272,0.0,0.0,94,0.00,,,0.00,69,TxWx,2014-02-17 13:28:00,
2014-02-17 08:33:00,31.0,29.3,30.10,West,272,0.0,0.0,93,0.00,,,0.00,73,TxWx,2014-02-17 13:33:00,
2014-02-17 08:38:00,31.1,29.0,30.10,WSW,245,1.1,2.0,91,0.00,,,0.00,83,TxWx,2014-02-17 13:38:00,
2014-02-17 08:43:00,31.4,28.9,30.10,SW,224,1.1,2.0,90,0.00,,,0.00,113,TxWx,2014-02-17 13:43:00,
2014-02-17 08:48:00,31.9,29.1,30.10,SW,233,0.0,0.0,89,0.00,,,0.00,87,TxWx,2014-02-17 13:48:00,
2014-02-17 08:53:00,32.2,29.1,30.10,SW,233,0.0,0.0,87,0.00,,,0.00,102,TxWx,2014-02-17 13:53:00,
2014-02-17 08:58:00,32.6,28.7,30.10,SSW,200,2.4,3.0,85,0.00,,,0.00,99,TxWx,2014-02-17 13:58:00,
2014-02-17 09:03:00,32.9,28.5,30.10,SW,232,2.4,2.4,83,0.00,,,0.00,110,TxWx,2014-02-17 14:03:00,
2014-02-17 09:08:00,33.0,28.0,30.10,SSW,199,2.4,2.4,81,0.00,,,0.00,104,TxWx,2014-02-17 14:08:00,
2014-02-17 09:13:00,33.3,27.8,30.10,SSW,199,1.1,2.0,80,0.00,,,0.00,109,TxWx,2014-02-17 14:13:00,
2014-02-17 09:18:00,33.7,28.0,30.10,South,191,2.4,2.4,79,0.00,,,0.00,121,TxWx,2014-02-17 14:18:00,
2014-02-17 09:23:00,34.1,28.0,30.10,WSW,240,3.5,5.0,78,0.00,,,0.00,133,TxWx,2014-02-17 14:23:00,
2014-02-17 09:28:00,34.4,28.1,30.09,SSW,198,2.4,2.4,77,0.00,,,0.00,126,TxWx,2014-02-17 14:28:00,
2014-02-17 09:33:00,34.5,27.8,30.09,SW,234,1.1,1.1,76,0.00,,,0.00,117,TxWx,2014-02-17 14:33:00,
2014-02-17 09:38:00,34.7,27.9,30.09,SW,230,2.4,2.4,75,0.00,,,0.00,115,TxWx,2014-02-17 14:38:00,
2014-02-17 09:43:00,34.9,27.9,30.09,South,188,6.1,6.1,75,0.00,,,0.00,115,TxWx,2014-02-17 14:43:00,
2014-02-17 09:48:00,35.3,28.2,30.09,SSW,212,5.0,5.0,75,0.00,,,0.00,121,TxWx,2014-02-17 14:48:00,
2014-02-17 09:53:00,35.4,28.5,30.10,SW,230,5.0,5.0,75,0.00,,,0.00,126,TxWx,2014-02-17 14:53:00,
2014-02-17 09:58:00,35.7,28.8,30.10,SSW,202,2.4,3.0,75,0.00,,,0.00,134,TxWx,2014-02-17 14:58:00,
2014-02-17 10:03:00,36.1,28.9,30.10,SSW,202,5.0,5.0,74,0.00,,,0.00,143,TxWx,2014-02-17 15:03:00,
2014-02-17 10:08:00,36.7,29.2,30.09,SW,218,5.0,6.0,74,0.00,,,0.00,167,TxWx,2014-02-17 15:08:00,
2014-02-17 10:13:00,37.4,29.7,30.09,SSW,206,6.1,7.0,73,0.00,,,0.00,184,TxWx,2014-02-17 15:13:00,
2014-02-17 10:18:00,37.8,29.6,30.09,South,191,5.0,6.0,71,0.00,,,0.00,211,TxWx,2014-02-17 15:18:00,
2014-02-17 10:23:00,38.1,28.9,30.09,SSW,211,7.4,8.0,69,0.00,,,0.00,197,TxWx,2014-02-17 15:23:00,
2014-02-17 10:28:00,38.8,29.4,30.08,SSW,200,5.0,5.0,68,0.00,,,0.00,217,TxWx,2014-02-17 15:28:00,
2014-02-17 10:33:00,38.9,29.3,30.08,SSW,212,5.0,5.0,68,0.00,,,0.00,164,TxWx,2014-02-17 15:33:00,
2014-02-17 10:38:00,39.4,29.5,30.08,SSW,213,6.1,6.1,67,0.00,,,0.00,172,TxWx,2014-02-17 15:38:00,
2014-02-17 10:43:00,39.5,29.2,30.08,SSW,196,7.4,7.4,66,0.00,,,0.00,193,TxWx,2014-02-17 15:43:00,
2014-02-17 10:48:00,39.8,29.4,30.08,SSW,210,6.1,7.0,65,0.00,,,0.00,254,TxWx,2014-02-17 15:48:00,
2014-02-17 10:53:00,40.7,29.7,30.08,South,191,2.4,2.4,64,0.00,,,0.00,240,TxWx,2014-02-17 15:53:00,
2014-02-17 10:58:00,41.8,30.2,30.07,WSW,245,2.4,2.4,63,0.00,,,0.00,217,TxWx,2014-02-17 15:58:00,
2014-02-17 11:03:00,43.1,29.4,30.08,ESE,106,6.1,6.1,58,0.00,,,0.00,305,TxWx,2014-02-17 16:03:00,
2014-02-17 11:08:00,47.3,23.3,30.08,ESE,116,8.5,8.5,38,0.00,,,0.00,266,TxWx,2014-02-17 16:08:00,
2014-02-17 11:13:00,48.4,21.2,30.08,East,91,12.1,12.1,33,0.00,,,0.00,260,TxWx,2014-02-17 16:13:00,
2014-02-17 11:18:00,48.8,21.7,30.07,East,87,14.8,14.8,33,0.00,,,0.00,265,TxWx,2014-02-17 16:18:00,
2014-02-17 11:23:00,48.8,21.8,30.07,East,89,9.8,9.8,34,0.00,,,0.00,259,TxWx,2014-02-17 16:23:00,
2014-02-17 11:28:00,48.9,21.6,30.07,ENE,66,8.5,9.0,33,0.00,,,0.00,242,TxWx,2014-02-17 16:28:00,
2014-02-17 11:33:00,48.9,21.2,30.07,ENE,74,11.0,11.0,33,0.00,,,0.00,204,TxWx,2014-02-17 16:33:00,
2014-02-17 11:38:00,49.2,21.2,30.07,NE,34,7.4,7.4,32,0.00,,,0.00,341,TxWx,2014-02-17 16:38:00,
2014-02-17 11:43:00,49.4,20.3,30.07,ESE,123,11.0,13.0,31,0.00,,,0.00,346,TxWx,2014-02-17 16:43:00,
2014-02-17 11:48:00,49.4,19.7,30.07,East,94,7.4,8.0,30,0.00,,,0.00,240,TxWx,2014-02-17 16:48:00,
2014-02-17 11:53:00,49.5,20.6,30.07,SE,134,7.4,9.0,31,0.00,,,0.00,232,TxWx,2014-02-17 16:53:00,
2014-02-17 11:58:00,49.4,20.6,30.06,ENE,65,16.0,16.0,31,0.00,,,0.00,213,TxWx,2014-02-17 16:58:00,
2014-02-17 12:03:00,49.3,20.6,30.06,ENE,63,14.8,16.0,31,0.00,,,0.00,238,TxWx,2014-02-17 17:03:00,
2014-02-17 12:08:00,49.6,21.2,30.06,ENE,73,11.0,12.0,32,0.00,,,0.00,206,TxWx,2014-02-17 17:08:00,
2014-02-17 12:13:00,49.5,21.0,30.05,SE,125,7.4,7.4,32,0.00,,,0.00,188,TxWx,2014-02-17 17:13:00,
2014-02-17 12:18:00,49.8,22.0,30.05,ENE,73,8.5,8.5,33,0.00,,,0.00,324,TxWx,2014-02-17 17:18:00,
2014-02-17 12:23:00,50.4,22.6,30.05,ENE,67,12.1,12.1,33,0.00,,,0.00,472,TxWx,2014-02-17 17:23:00,
2014-02-17 12:28:00,50.4,23.0,30.04,East,88,11.0,11.0,33,0.00,,,0.00,283,TxWx,2014-02-17 17:28:00,
2014-02-17 12:33:00,50.8,23.2,30.04,ENE,70,9.8,9.8,33,0.00,,,0.00,336,TxWx,2014-02-17 17:33:00,
2014-02-17 12:38:00,50.6,23.8,30.04,East,101,12.1,12.1,34,0.00,,,0.00,373,TxWx,2014-02-17 17:38:00,
2014-02-17 12:43:00,51.0,24.6,30.03,East,81,13.5,13.5,35,0.00,,,0.00,305,TxWx,2014-02-17 17:43:00,
2014-02-17 12:48:00,51.0,24.9,30.03,ESE,102,6.1,7.0,35,0.00,,,0.00,283,TxWx,2014-02-17 17:48:00,
2014-02-17 12:53:00,50.7,24.9,30.03,ESE,103,5.0,5.0,36,0.00,,,0.00,297,TxWx,2014-02-17 17:53:00,
2014-02-17 12:58:00,50.6,24.6,30.02,ENE,70,9.8,9.8,36,0.00,,,0.00,387,TxWx,2014-02-17 17:58:00,
2014-02-17 13:03:00,50.9,25.5,30.02,ENE,78,12.1,12.1,36,0.00,,,0.00,318,TxWx,2014-02-17 18:03:00,
2014-02-17 13:08:00,51.3,25.7,30.02,ENE,77,5.0,6.0,36,0.00,,,0.00,241,TxWx,2014-02-17 18:08:00,
2014-02-17 13:13:00,51.2,26.1,30.02,ENE,76,11.0,11.0,37,0.00,,,0.00,379,TxWx,2014-02-17 18:13:00,
2014-02-17 13:18:00,51.5,27.1,30.02,ENE,77,11.0,11.0,38,0.00,,,0.00,427,TxWx,2014-02-17 18:18:00,
2014-02-17 13:23:00,51.7,26.6,30.03,ENE,69,11.0,11.0,37,0.00,,,0.00,427,TxWx,2014-02-17 18:23:00,
2014-02-17 13:28:00,51.6,27.5,30.03,NE,35,7.4,8.0,39,0.00,,,0.00,393,TxWx,2014-02-17 18:28:00,
2014-02-17 13:33:00,51.8,28.2,30.03,NNE,27,3.5,5.0,39,0.00,,,0.00,351,TxWx,2014-02-17 18:33:00,
2014-02-17 13:38:00,52.3,28.7,30.03,NE,37,8.5,8.5,40,0.00,,,0.00,365,TxWx,2014-02-17 18:38:00,
2014-02-17 13:43:00,52.0,28.8,30.03,NE,42,9.8,11.0,40,0.00,,,0.00,312,TxWx,2014-02-17 18:43:00,
2014-02-17 13:48:00,52.0,30.3,30.03,NNE,26,3.5,5.0,43,0.00,,,0.00,395,TxWx,2014-02-17 18:48:00,
2014-02-17 13:53:00,52.9,30.9,30.03,North,353,8.5,8.5,42,0.00,,,0.00,388,TxWx,2014-02-17 18:53:00,
2014-02-17 13:58:00,51.3,29.1,30.03,NE,37,6.1,6.1,42,0.00,,,0.00,308,TxWx,2014-02-17 18:58:00,
2014-02-17 14:03:00,51.5,30.5,30.02,NNE,12,5.0,5.0,44,0.00,,,0.00,344,TxWx,2014-02-17 19:03:00,
2014-02-17 14:08:00,51.5,30.3,30.02,NE,34,8.5,8.5,43,0.00,,,0.00,343,TxWx,2014-02-17 19:08:00,
2014-02-17 14:13:00,51.9,30.4,30.02,NNW,331,3.5,5.0,43,0.00,,,0.00,343,TxWx,2014-02-17 19:13:00,
2014-02-17 14:19:00,52.4,31.8,30.01,NE,45,5.0,7.0,45,0.00,,,0.00,339,TxWx,2014-02-17 19:19:00,
2014-02-17 14:24:00,52.3,30.8,30.01,North,5,3.5,3.5,43,0.00,,,0.00,280,TxWx,2014-02-17 19:24:00,
2014-02-17 14:29:00,51.6,30.4,30.01,NNE,13,6.1,6.1,43,0.00,,,0.00,322,TxWx,2014-02-17 19:29:00,
2014-02-17 14:34:00,51.7,31.7,30.00,NNW,347,6.1,6.1,46,0.00,,,0.00,343,TxWx,2014-02-17 19:34:00,
2014-02-17 14:39:00,51.7,31.3,30.00,NNW,336,2.4,2.4,45,0.00,,,0.00,374,TxWx,2014-02-17 19:39:00,
2014-02-17 14:44:00,52.1,31.6,30.00,NNE,33,3.5,3.5,45,0.00,,,0.00,215,TxWx,2014-02-17 19:44:00,
2014-02-17 14:49:00,52.0,31.5,29.99,North,4,5.0,5.0,45,0.00,,,0.00,205,TxWx,2014-02-17 19:49:00,
2014-02-17 14:54:00,52.0,31.4,29.99,NNE,13,7.4,9.0,45,0.00,,,0.00,279,TxWx,2014-02-17 19:54:00,
2014-02-17 14:59:00,51.6,31.1,29.99,NE,35,6.1,6.1,45,0.00,,,0.00,280,TxWx,2014-02-17 19:59:00,
2014-02-17 15:04:00,52.0,32.0,29.98,NNE,17,5.0,5.0,46,0.00,,,0.00,281,TxWx,2014-02-17 20:04:00,
2014-02-17 15:09:00,52.2,31.4,29.99,North,7,2.4,3.0,44,0.00,,,0.00,196,TxWx,2014-02-17 20:09:00,
2014-02-17 15:14:00,52.0,31.2,29.99,North,5,7.4,7.4,44,0.00,,,0.00,154,TxWx,2014-02-17 20:14:00,
2014-02-17 15:19:00,51.9,32.0,29.98,NNE,15,5.0,6.0,46,0.00,,,0.00,141,TxWx,2014-02-17 20:19:00,
2014-02-17 15:24:00,52.0,32.0,29.98,NNW,345,7.4,8.0,46,0.00,,,0.00,260,TxWx,2014-02-17 20:24:00,
2014-02-17 15:29:00,51.8,31.5,29.98,North,8,5.0,5.0,45,0.00,,,0.00,163,TxWx,2014-02-17 20:29:00,
2014-02-17 15:34:00,51.8,31.8,29.98,North,8,6.1,7.0,46,0.00,,,0.00,229,TxWx,2014-02-17 20:34:00,
2014-02-17 15:39:00,51.6,31.6,29.98,North,6,3.5,3.5,46,0.00,,,0.00,137,TxWx,2014-02-17 20:39:00,
2014-02-17 15:44:00,51.5,31.7,29.98,North,5,2.4,3.0,46,0.00,,,0.00,116,TxWx,2014-02-17 20:44:00,
2014-02-17 15:49:00,51.5,32.0,29.98,North,3,3.5,3.5,47,0.00,,,0.00,127,TxWx,2014-02-17 20:49:00,
2014-02-17 15:54:00,51.5,32.3,29.97,NW,326,7.4,7.4,47,0.00,,,0.00,109,TxWx,2014-02-17 20:54:00,
2014-02-17 15:59:00,51.7,32.2,29.98,NNE,26,7.4,7.4,47,0.00,,,0.00,264,TxWx,2014-02-17 20:59:00,
2014-02-17 16:04:00,51.9,32.5,29.97,NNE,28,3.5,3.5,47,0.00,,,0.00,241,TxWx,2014-02-17 21:04:00,
2014-02-17 16:09:00,52.0,31.9,29.97,NNE,18,5.0,5.0,46,0.00,,,0.00,220,TxWx,2014-02-17 21:09:00,
2014-02-17 16:14:00,51.8,31.7,29.97,NW,316,5.0,6.0,46,0.00,,,0.00,183,TxWx,2014-02-17 21:14:00,
2014-02-17 16:19:00,52.0,32.2,29.97,NNE,28,3.5,3.5,46,0.00,,,0.00,127,TxWx,2014-02-17 21:19:00,
2014-02-17 16:24:00,51.8,32.1,29.97,North,1,8.5,8.5,46,0.00,,,0.00,96,TxWx,2014-02-17 21:24:00,
2014-02-17 16:29:00,51.6,32.6,29.97,NE,55,3.5,6.0,48,0.00,,,0.00,57,TxWx,2014-02-17 21:29:00,
2014-02-17 16:34:00,51.4,32.2,29.97,NNE,16,8.5,8.5,47,0.00,,,0.00,50,TxWx,2014-02-17 21:34:00,
2014-02-17 16:39:00,51.3,32.2,29.97,NE,34,5.0,6.0,48,0.00,,,0.00,36,TxWx,2014-02-17 21:39:00,
2014-02-17 16:44:00,51.3,32.1,29.97,NE,45,8.5,9.0,47,0.00,,,0.00,32,TxWx,2014-02-17 21:44:00,
2014-02-17 16:49:00,51.1,32.0,29.97,North,8,5.0,6.0,47,0.00,,,0.00,23,TxWx,2014-02-17 21:49:00,
2014-02-17 16:54:00,50.9,32.6,29.98,NNE,30,2.4,2.4,49,0.00,,,0.00,37,TxWx,2014-02-17 21:54:00,
2014-02-17 16:59:00,50.9,32.5,29.98,NE,50,3.5,5.0,49,0.00,,,0.00,36,TxWx,2014-02-17 21:59:00,
2014-02-17 17:04:00,50.8,32.1,29.97,NE,34,5.0,6.0,48,0.00,,,0.00,43,TxWx,2014-02-17 22:04:00,
2014-02-17 17:09:00,50.8,32.0,29.97,East,98,3.5,3.5,48,0.00,,,0.00,38,TxWx,2014-02-17 22:09:00,
2014-02-17 17:14:00,51.0,32.6,29.97,NNE,29,5.0,5.0,49,0.00,,,0.00,33,TxWx,2014-02-17 22:14:00,
2014-02-17 17:19:00,50.9,32.4,29.98,North,0,8.5,8.5,48,0.00,,,0.00,26,TxWx,2014-02-17 22:19:00,
2014-02-17 17:24:00,50.7,32.2,29.98,ENE,71,9.8,9.8,48,0.00,,,0.00,18,TxWx,2014-02-17 22:24:00,
2014-02-17 17:29:00,50.5,32.1,29.98,NNE,23,7.4,7.4,49,0.00,,,0.00,15,TxWx,2014-02-17 22:29:00,
2014-02-17 17:34:00,50.4,32.2,29.98,ENE,57,9.8,9.8,49,0.00,,,0.00,13,TxWx,2014-02-17 22:34:00,
2014-02-17 17:39:00,50.3,32.4,29.98,NNE,28,7.4,8.0,50,0.00,,,0.00,9,TxWx,2014-02-17 22:39:00,
2014-02-17 17:44:00,50.0,32.3,29.99,North,2,11.0,11.0,50,0.00,,,0.00,6,TxWx,2014-02-17 22:44:00,
2014-02-17 17:49:00,49.8,32.3,29.99,North,349,3.5,3.5,50,0.00,,,0.00,6,TxWx,2014-02-17 22:49:00,
2014-02-17 17:54:00,49.6,32.4,30.00,North,11,6.1,7.0,51,0.00,,,0.00,3,TxWx,2014-02-17 22:54:00,
2014-02-17 17:59:00,49.2,31.9,30.00,NNE,29,7.4,8.0,51,0.00,,,0.00,3,TxWx,2014-02-17 22:59:00,
2014-02-17 18:04:00,49.1,32.1,30.00,NNE,27,6.1,6.1,51,0.00,,,0.00,2,TxWx,2014-02-17 23:04:00,
2014-02-17 18:09:00,48.8,32.2,30.00,NE,49,12.1,12.1,52,0.00,,,0.00,2,TxWx,2014-02-17 23:09:00,
2014-02-17 18:14:00,48.6,32.3,30.00,NE,43,12.1,13.0,53,0.00,,,0.00,1,TxWx,2014-02-17 23:14:00,
2014-02-17 18:19:00,48.4,32.4,30.00,NE,41,6.1,7.0,53,0.00,,,0.00,0,TxWx,2014-02-17 23:19:00,
2014-02-17 18:24:00,48.3,32.3,30.01,North,355,6.1,7.0,53,0.00,,,0.00,0,TxWx,2014-02-17 23:24:00,
2014-02-17 18:29:00,48.0,32.6,30.00,NE,52,8.5,8.5,55,0.00,,,0.00,0,TxWx,2014-02-17 23:29:00,
2014-02-17 18:34:00,48.0,32.5,30.01,NE,52,13.5,13.5,54,0.00,,,0.00,0,TxWx,2014-02-17 23:34:00,
2014-02-17 18:39:00,47.7,32.0,30.01,ENE,70,14.8,16.0,54,0.00,,,0.00,0,TxWx,2014-02-17 23:39:00,
2014-02-17 18:44:00,47.4,32.8,30.01,NE,37,9.8,9.8,56,0.00,,,0.00,0,TxWx,2014-02-17 23:44:00,
2014-02-17 18:49:00,47.4,32.4,30.01,NE,55,6.1,8.0,55,0.00,,,0.00,0,TxWx,2014-02-17 23:49:00,
2014-02-17 18:54:00,47.2,32.6,30.01,ENE,60,11.0,12.0,56,0.00,,,0.00,0,TxWx,2014-02-17 23:54:00,
2014-02-17 18:59:00,47.3,32.5,30.01,East,84,6.1,8.0,56,0.00,,,0.00,0,TxWx,2014-02-17 23:59:00,
2014-02-17 19:04:00,47.6,33.0,30.00,NNE,21,8.5,11.0,56,0.00,,,0.00,0,TxWx,2014-02-18 00:04:00,
2014-02-17 19:09:00,47.5,33.1,29.99,NE,40,9.8,9.8,57,0.00,,,0.00,0,TxWx,2014-02-18 00:09:00,
2014-02-17 19:14:00,47.6,33.1,29.99,North,8,11.0,13.0,56,0.00,,,0.00,0,TxWx,2014-02-18 00:14:00,
2014-02-17 19:19:00,47.7,33.4,29.99,ENE,77,11.0,11.0,57,0.00,,,0.00,0,TxWx,2014-02-18 00:19:00,
2014-02-17 19:24:00,47.5,33.0,29.99,ENE,65,12.1,12.1,57,0.00,,,0.00,0,TxWx,2014-02-18 00:24:00,
2014-02-17 19:29:00,47.7,33.5,29.99,North,10,7.4,7.4,57,0.00,,,0.00,0,TxWx,2014-02-18 00:29:00,
2014-02-17 19:34:00,47.2,34.3,30.00,NNE,18,7.4,8.0,60,0.00,,,0.00,0,TxWx,2014-02-18 00:34:00,
2014-02-17 19:39:00,47.1,34.6,30.00,NNE,32,8.5,9.0,61,0.00,,,0.00,0,TxWx,2014-02-18 00:39:00,
2014-02-17 19:44:00,47.2,34.8,30.00,NE,49,13.5,14.0,61,0.00,,,0.00,0,TxWx,2014-02-18 00:44:00,
2014-02-17 19:49:00,46.8,35.2,30.00,ENE,61,8.5,9.0,63,0.00,,,0.00,0,TxWx,2014-02-18 00:49:00,
2014-02-17 19:54:00,46.8,34.8,30.00,NE,39,7.4,8.0,62,0.00,,,0.00,0,TxWx,2014-02-18 00:54:00,
2014-02-17 19:59:00,46.9,34.4,30.00,ENE,72,8.5,8.5,61,0.00,,,0.00,0,TxWx,2014-02-18 00:59:00,
2014-02-17 20:04:00,46.8,34.7,29.99,NE,48,9.8,9.8,62,0.00,,,0.00,0,TxWx,2014-02-18 01:04:00,
2014-02-17 20:09:00,46.2,35.1,30.00,ENE,66,12.1,13.0,64,0.00,,,0.00,0,TxWx,2014-02-18 01:09:00,
2014-02-17 20:14:00,45.7,35.7,30.00,NE,47,9.8,9.8,68,0.00,,,0.00,0,TxWx,2014-02-18 01:14:00,
2014-02-17 20:19:00,45.5,36.4,30.00,NNE,30,12.1,12.1,70,0.00,,,0.00,0,TxWx,2014-02-18 01:19:00,
2014-02-17 20:24:00,45.2,36.7,30.01,NE,42,11.0,11.0,72,0.00,,,0.00,0,TxWx,2014-02-18 01:24:00,
2014-02-17 20:29:00,44.4,36.9,30.01,ENE,75,12.1,13.0,74,0.00,,,0.00,0,TxWx,2014-02-18 01:29:00,
2014-02-17 20:34:00,44.7,37.2,29.99,ENE,65,7.4,8.0,74,0.00,,,0.00,0,TxWx,2014-02-18 01:34:00,
2014-02-17 20:39:00,44.6,36.9,29.99,ENE,60,14.8,14.8,74,0.00,,,0.00,0,TxWx,2014-02-18 01:39:00,
2014-02-17 20:44:00,43.9,37.4,30.00,ENE,67,11.0,11.0,77,0.00,,,0.01,0,TxWx,2014-02-18 01:44:00,
2014-02-17 20:49:00,43.6,37.5,30.00,ENE,67,18.4,18.4,79,0.01,,,0.01,0,TxWx,2014-02-18 01:49:00,
2014-02-17 20:54:00,43.4,37.8,30.00,ENE,74,8.5,9.0,80,0.01,,,0.01,0,TxWx,2014-02-18 01:54:00,
2014-02-17 20:59:00,43.5,37.9,30.00,East,80,16.0,16.0,80,0.02,,,0.02,0,TxWx,2014-02-18 01:59:00,
2014-02-17 21:04:00,43.2,38.1,30.00,ENE,69,9.8,11.0,81,0.02,,,0.02,0,TxWx,2014-02-18 02:04:00,
2014-02-17 21:09:00,43.0,38.4,30.01,East,79,11.0,11.0,83,0.02,,,0.03,0,TxWx,2014-02-18 02:09:00,
2014-02-17 21:14:00,43.2,38.6,30.01,ENE,67,14.8,16.0,83,0.03,,,0.03,0,TxWx,2014-02-18 02:14:00,
2014-02-17 21:19:00,42.7,38.3,30.01,NNE,29,5.0,5.0,84,0.03,,,0.03,0,TxWx,2014-02-18 02:19:00,
2014-02-17 21:24:00,42.8,38.5,30.01,ESE,102,14.8,14.8,84,0.04,,,0.04,0,TxWx,2014-02-18 02:24:00,
2014-02-17 21:29:00,42.3,38.8,30.01,ENE,75,14.8,14.8,87,0.05,,,0.05,0,TxWx,2014-02-18 02:29:00,
2014-02-17 21:34:00,42.6,39.1,30.01,ENE,73,16.0,17.0,87,0.06,,,0.06,0,TxWx,2014-02-18 02:34:00,
2014-02-17 21:39:00,42.4,38.9,30.01,ENE,71,12.1,12.1,87,0.08,,,0.08,0,TxWx,2014-02-18 02:39:00,
2014-02-17 21:44:00,42.3,38.9,30.01,SE,131,9.8,9.8,87,0.09,,,0.09,0,TxWx,2014-02-18 02:44:00,
2014-02-17 21:49:00,42.5,39.1,30.01,ENE,61,11.0,11.0,87,0.09,,,0.10,0,TxWx,2014-02-18 02:49:00,
2014-02-17 21:54:00,42.8,39.0,30.01,East,100,7.4,11.0,86,0.09,,,0.10,0,TxWx,2014-02-18 02:54:00,
2014-02-17 21:59:00,42.9,39.3,30.01,NE,43,12.1,13.0,86,0.08,,,0.10,0,TxWx,2014-02-18 02:59:00,
2014-02-17 22:04:00,42.6,39.2,30.01,ENE,75,16.0,16.0,87,0.08,,,0.11,0,TxWx,2014-02-18 03:04:00,
2014-02-17 22:09:00,42.4,39.6,30.02,ENE,75,8.5,8.5,89,0.09,,,0.12,0,TxWx,2014-02-18 03:09:00,
2014-02-17 22:14:00,42.5,39.6,30.02,ENE,76,13.5,13.5,89,0.09,,,0.12,0,TxWx,2014-02-18 03:14:00,
2014-02-17 22:19:00,42.5,39.7,30.03,ENE,71,11.0,12.0,89,0.10,,,0.13,0,TxWx,2014-02-18 03:19:00,
2014-02-17 22:24:00,42.5,39.6,30.03,East,79,16.0,16.0,89,0.12,,,0.16,0,TxWx,2014-02-18 03:24:00,
2014-02-17 22:29:00,42.1,39.9,30.04,NE,56,12.1,13.0,91,0.12,,,0.17,0,TxWx,2014-02-18 03:29:00,
2014-02-17 22:34:00,42.5,39.7,30.05,East,84,7.4,8.0,89,0.12,,,0.18,0,TxWx,2014-02-18 03:34:00,
2014-02-17 22:39:00,42.2,39.4,30.04,SE,127,8.5,8.5,89,0.11,,,0.19,0,TxWx,2014-02-18 03:39:00,
2014-02-17 22:44:00,42.4,39.2,30.04,ENE,68,8.5,9.0,88,0.10,,,0.19,0,TxWx,2014-02-18 03:44:00,
2014-02-17 22:49:00,42.4,39.3,30.04,NE,42,11.0,11.0,88,0.09,,,0.19,0,TxWx,2014-02-18 03:49:00,
2014-02-17 22:54:00,42.1,39.5,30.03,ENE,72,13.5,13.5,90,0.09,,,0.19,0,TxWx,2014-02-18 03:54:00,
2014-02-17 22:59:00,42.3,39.6,30.03,ENE,59,8.5,11.0,90,0.09,,,0.19,0,TxWx,2014-02-18 03:59:00,
2014-02-17 23:04:00,42.3,39.6,30.03,ENE,77,11.0,11.0,90,0.08,,,0.00,0,TxWx,2014-02-18 04:04:00,
2014-02-17 23:09:00,42.4,39.5,30.03,East,84,9.8,11.0,89,0.08,,,0.00,0,TxWx,2014-02-18 04:09:00,
2014-02-17 23:14:00,42.4,39.5,30.03,ENE,73,13.5,13.5,89,0.07,,,0.00,0,TxWx,2014-02-18 04:14:00,
2014-02-17 23:19:00,42.5,39.7,30.02,ENE,72,14.8,16.0,89,0.06,,,0.00,0,TxWx,2014-02-18 04:19:00,
2014-02-17 23:24:00,42.8,39.9,30.03,ENE,63,12.1,12.1,89,0.04,,,0.00,0,TxWx,2014-02-18 04:24:00,
2014-02-17 23:29:00,42.7,39.8,30.02,East,98,13.5,13.5,89,0.02,,,0.00,0,TxWx,2014-02-18 04:29:00,
2014-02-17 23:34:00,42.9,39.9,30.02,East,87,8.5,8.5,88,0.01,,,0.00,0,TxWx,2014-02-18 04:34:00,
2014-02-17 23:39:00,43.1,40.1,30.03,NNE,21,5.0,5.0,89,0.00,,,0.00,0,TxWx,2014-02-18 04:39:00,
2014-02-17 23:44:00,43.4,40.4,30.03,ESE,108,12.1,12.1,89,0.00,,,0.00,0,TxWx,2014-02-18 04:44:00,
2014-02-17 23:49:00,43.6,40.4,30.03,ESE,117,13.5,16.0,88,0.00,,,0.00,0,TxWx,2014-02-18 04:49:00,
2014-02-17 23:54:00,43.7,40.2,30.03,NE,52,11.0,12.0,87,0.00,,,0.00,0,TxWx,2014-02-18 04:54:00,
2014-02-17 23:59:00,43.9,40.5,30.03,ENE,69,13.5,13.5,87,0.00,,,0.00,0,TxWx,2014-02-18 04:59:00,